User: anonymous   Login
Location: Fort Hays State University
(38.8712°N, 99.3432°W)
Time: 02:07:52
(UTC-05:00)
Language:

ALOS - Orbit

View from above orbital plane
View from above orbital plane
View from above satellite
View from above satellite

Ground track
Ground track

The orbit data is extracted from the following two-line orbital elements,

1 28931U 06002A   15116.87515803  .00001032  00000-0  21568-3 0  9993
2 28931 097.9385 168.3166 0000530 109.9413 250.1844 14.61814425493143
Epoch (UTC): 26 April 2015 21:00:13
Eccentricity: 0.0000530
inclination: 97.9385°
perigee height: 687 km
apogee height: 688 km
right ascension of ascending node: 168.3166°
argument of perigee: 109.9413°
revolutions per day: 14.61814425
mean anomaly at epoch: 250.1844°
orbit number at epoch: 49314

The dashed part of the orbit path shows where the satellite is in the earth's shadow,  

DLR